EXALTA-1 (42734 NORAD) Tracking and Keplerian Element Data

This shows tracking and keplerian element data for the satellite.

Feedback or suggestion? Click here.




ElementValue
Catalog42734
NameEXALTA-1
Epoch Orbit6520
Epoch Day198.59572628
Epoch Year2018
RAAN195.1631
Inclination51.6276
Eccentricity0.0006271
Argument of Perigee354.907
Mean Anonmoly5.1866
Mean Motion15.78080941
Decay Rate0.00053574
L11 42734U 98067MP 18198.59572628 .00053574 00000-0 30924-3 0 9996
L22 42734 51.6276 195.1631 0006271 354.9070 5.1866 15.78080941 65201

Live tracking and technical data element details for EXALTA-1 (NORAD 42734). EXALTA-1 can be tracked NOW for your location showing map with azimuth and elevation plus other details from your city location.

Track the satellite on the map from your city or location and see movement details for azimuth, elevation, latitude, longitude, range, height, and movement on the map or in text.







IsCatalogInMostPopularTable: catalog: 42734, numindb: 124
Update: records affected: 1



GetName: 42734 EXALTA-1

Hit Count: updated at: Wed, 18 Jul 2018 20:28:07 GMT